When you browse on this site, cookies collect data to enhance your experience and personalize the content and advertising you see.
Visit our Privacy Policy to learn more. By continuing to use the site, you agree to this use of cookies and data.
  • In France
  • List of Countries
  • For 7 days
  • Water Temperature
  • Weather Map
  • Weather Widgets
  • user-avatar
    Login

    Hourly Weather White Bear Lake

    Today, 3 June, Wednesday

    Time Temperature Precipitation Wind Pressure Humidity
    00:00 +19°C° 0 mm 1 mps 733 mmHg 74%
    01:00 +19°C° 0 mm 1 mps 733 mmHg 75%
    02:00 +19°C° 0 mm 1 mps 733 mmHg 76%
    03:00 +18°C° 0 mm 1 mps 732 mmHg 77%
    04:00 +18°C° 0 mm 2 mps 732 mmHg 77%
    05:00 +18°C° 0 mm 2 mps 733 mmHg 77%
    06:00 +19°C° 0 mm 2 mps 733 mmHg 77%
    07:00 +21°C° 0 mm 2 mps 733 mmHg 72%
    08:00 +23°C° 0 mm 2 mps 733 mmHg 66%
    09:00 +25°C° 0 mm 2 mps 733 mmHg 60%
    10:00 +26°C° 0 mm 3 mps 733 mmHg 55%
    11:00 +27°C° 0 mm 3 mps 733 mmHg 50%
    12:00 +28°C° 0 mm 4 mps 733 mmHg 45%
    13:00 +28°C° 0 mm 4 mps 732 mmHg 44%
    14:00 +28°C° 0 mm 4 mps 732 mmHg 44%
    15:00 +28°C° 0 mm 4 mps 732 mmHg 43%
    16:00 +28°C° 0 mm 4 mps 731 mmHg 47%
    17:00 +27°C° 0 mm 3 mps 731 mmHg 51%
    18:00 +26°C° 0 mm 2 mps 731 mmHg 55%
    19:00 +24°C° 0 mm 2 mps 731 mmHg 58%
    20:00 +22°C° 0 mm 1 mps 731 mmHg 61%
    21:00 +20°C° 0 mm 1 mps 731 mmHg 65%
    22:00 +20°C° 0 mm 1 mps 731 mmHg 66%
    23:00 +20°C° 0 mm 1 mps 731 mmHg 67%

    Tomorrow, 4 June, Thursday

    Time Temperature Precipitation Wind Pressure Humidity
    00:00 +17°C° 0 mm 0 mps 731 mmHg 68%
    01:00 +17°C° 0 mm 0 mps 731 mmHg 69%
    02:00 +16°C° 0 mm 0 mps 731 mmHg 70%
    03:00 +16°C° 0 mm 0 mps 730 mmHg 71%
    04:00 +16°C° 0 mm 0 mps 730 mmHg 70%
    05:00 +17°C° 0 mm 0 mps 731 mmHg 70%
    06:00 +20°C° 0 mm 1 mps 731 mmHg 69%
    07:00 +21°C° 0 mm 1 mps 731 mmHg 65%
    08:00 +23°C° 0 mm 2 mps 731 mmHg 61%
    09:00 +25°C° 0 mm 2 mps 731 mmHg 57%
    10:00 +26°C° 0 mm 2 mps 731 mmHg 54%
    11:00 +28°C° 0 mm 2 mps 731 mmHg 51%
    12:00 +29°C° 0 mm 2 mps 731 mmHg 48%
    13:00 +29°C° 0 mm 2 mps 731 mmHg 47%
    14:00 +30°C° 0 mm 2 mps 731 mmHg 45%
    15:00 +30°C° 0 mm 2 mps 731 mmHg 44%
    16:00 +29°C° 0.1 mm 2 mps 730 mmHg 48%
    17:00 +28°C° 0.1 mm 2 mps 730 mmHg 53%
    18:00 +28°C° 0.1 mm 2 mps 730 mmHg 57%
    19:00 +26°C° 0.1 mm 2 mps 730 mmHg 63%
    20:00 +24°C° 0.1 mm 2 mps 730 mmHg 70%
    21:00 +23°C° 0.1 mm 2 mps 730 mmHg 76%
    22:00 +21°C° 1.1 mm 2 mps 730 mmHg 80%
    23:00 +20°C° 1.1 mm 2 mps 730 mmHg 83%

    Day after tomorrow, 5 June, Friday

    Time Temperature Precipitation Wind Pressure Humidity
    00:00 +20°C° 1.1 mm 2 mps 730 mmHg 87%
    01:00 +19°C° 0.6 mm 2 mps 730 mmHg 89%
    02:00 +20°C° 0.6 mm 1 mps 730 mmHg 90%
    03:00 +19°C° 0.6 mm 1 mps 730 mmHg 92%
    04:00 +17°C° 0 mm 2 mps 730 mmHg 90%
    05:00 +17°C° 0 mm 3 mps 731 mmHg 89%
    06:00 +15°C° 0 mm 4 mps 731 mmHg 88%
    07:00 +18°C° 0 mm 3 mps 732 mmHg 81%
    08:00 +20°C° 0 mm 3 mps 732 mmHg 74%
    09:00 +21°C° 0 mm 2 mps 733 mmHg 67%
    10:00 +24°C° 0 mm 2 mps 733 mmHg 61%
    11:00 +25°C° 0 mm 3 mps 733 mmHg 55%
    12:00 +26°C° 0 mm 3 mps 734 mmHg 48%
    13:00 +27°C° 0 mm 4 mps 734 mmHg 48%
    14:00 +27°C° 0 mm 5 mps 734 mmHg 47%
    15:00 +27°C° 0 mm 5 mps 734 mmHg 46%
    16:00 +26°C° 0 mm 5 mps 734 mmHg 50%
    17:00 +25°C° 0 mm 5 mps 734 mmHg 53%
    18:00 +23°C° 0 mm 4 mps 735 mmHg 57%
    19:00 +21°C° 0 mm 4 mps 735 mmHg 60%
    20:00 +20°C° 0 mm 4 mps 735 mmHg 63%
    21:00 +18°C° 0 mm 4 mps 736 mmHg 66%
    22:00 +17°C° 0 mm 4 mps 736 mmHg 68%
    23:00 +14°C° 0 mm 3 mps 736 mmHg 70%

    6 June, Saturday

    Time Temperature Precipitation Wind Pressure Humidity
    00:00 +13°C° 0 mm 3 mps 737 mmHg 72%
    01:00 +13°C° 0 mm 3 mps 737 mmHg 73%
    02:00 +12°C° 0 mm 3 mps 738 mmHg 75%
    03:00 +12°C° 0 mm 2 mps 738 mmHg 76%
    04:00 +11°C° 0 mm 3 mps 738 mmHg 76%
    05:00 +11°C° 0 mm 3 mps 738 mmHg 76%
    06:00 +11°C° 0 mm 3 mps 738 mmHg 77%
    07:00 +12°C° 0 mm 3 mps 739 mmHg 71%
    08:00 +15°C° 0 mm 2 mps 739 mmHg 65%
    09:00 +16°C° 0 mm 2 mps 739 mmHg 59%
    10:00 +18°C° 0 mm 2 mps 739 mmHg 56%
    11:00 +19°C° 0 mm 2 mps 739 mmHg 52%
    12:00 +20°C° 0 mm 2 mps 739 mmHg 49%
    13:00 +21°C° 0 mm 2 mps 738 mmHg 50%
    14:00 +21°C° 0 mm 2 mps 738 mmHg 50%
    15:00 +21°C° 0 mm 2 mps 737 mmHg 51%
    16:00 +21°C° 0.1 mm 3 mps 737 mmHg 56%
    17:00 +20°C° 0.1 mm 3 mps 737 mmHg 61%
    18:00 +19°C° 0.1 mm 4 mps 737 mmHg 66%
    19:00 +18°C° 0.1 mm 4 mps 736 mmHg 69%
    20:00 +17°C° 0.1 mm 3 mps 736 mmHg 73%
    21:00 +17°C° 0.1 mm 3 mps 735 mmHg 77%
    22:00 +16°C° 0 mm 3 mps 736 mmHg 78%
    23:00 +16°C° 0 mm 3 mps 736 mmHg 79%

    7 June, Sunday

    Time Temperature Precipitation Wind Pressure Humidity
    00:00 +16°C° 0 mm 2 mps 737 mmHg 80%
    01:00 +16°C° 0.1 mm 3 mps 737 mmHg 81%
    02:00 +14°C° 0.1 mm 4 mps 737 mmHg 83%
    03:00 +14°C° 0.1 mm 5 mps 736 mmHg 84%
    04:00 +14°C° 0.1 mm 6 mps 736 mmHg 86%
    05:00 +14°C° 0.1 mm 6 mps 736 mmHg 87%
    06:00 +14°C° 0.1 mm 6 mps 736 mmHg 89%
    07:00 +14°C° 0 mm 6 mps 736 mmHg 85%
    08:00 +14°C° 0 mm 7 mps 736 mmHg 82%
    09:00 +14°C° 0 mm 7 mps 736 mmHg 79%
    10:00 +14°C° 0.2 mm 7 mps 736 mmHg 81%
    11:00 +12°C° 0.2 mm 7 mps 736 mmHg 82%
    12:00 +13°C° 0.2 mm 6 mps 736 mmHg 84%
    13:00 +12°C° 0 mm 7 mps 736 mmHg 81%
    14:00 +14°C° 0 mm 7 mps 736 mmHg 78%
    15:00 +14°C° 0 mm 7 mps 735 mmHg 76%
    16:00 +14°C° 0 mm 7 mps 735 mmHg 78%
    17:00 +14°C° 0 mm 6 mps 735 mmHg 79%
    18:00 +14°C° 0 mm 6 mps 735 mmHg 81%
    19:00 +15°C° 0 mm 6 mps 735 mmHg 81%
    20:00 +15°C° 0 mm 6 mps 735 mmHg 82%
    21:00 +15°C° 0 mm 6 mps 735 mmHg 82%
    22:00 +15°C° 0 mm 6 mps 735 mmHg 82%
    23:00 +16°C° 0 mm 7 mps 735 mmHg 82%

    8 June, Monday

    Time Temperature Precipitation Wind Pressure Humidity
    00:00 +16°C° 0 mm 7 mps 734 mmHg 82%
    01:00 +15°C° 0 mm 7 mps 734 mmHg 81%
    02:00 +15°C° 0 mm 7 mps 734 mmHg 80%
    03:00 +15°C° 0 mm 7 mps 734 mmHg 79%
    04:00 +15°C° 0 mm 7 mps 734 mmHg 81%
    05:00 +14°C° 0 mm 7 mps 734 mmHg 82%
    06:00 +14°C° 0 mm 6 mps 734 mmHg 83%
    07:00 +16°C° 0 mm 6 mps 734 mmHg 80%
    08:00 +18°C° 0 mm 7 mps 733 mmHg 76%
    09:00 +21°C° 0 mm 7 mps 733 mmHg 73%
    10:00 +23°C° 0 mm 7 mps 733 mmHg 70%
    11:00 +26°C° 0 mm 7 mps 733 mmHg 68%
    12:00 +28°C° 0 mm 7 mps 733 mmHg 65%
    13:00 +28°C° 0 mm 7 mps 733 mmHg 63%
    14:00 +29°C° 0 mm 7 mps 732 mmHg 60%
    15:00 +29°C° 0 mm 7 mps 732 mmHg 58%
    16:00 +29°C° 0 mm 7 mps 732 mmHg 61%
    17:00 +28°C° 0 mm 6 mps 731 mmHg 64%
    18:00 +27°C° 0 mm 6 mps 731 mmHg 67%
    19:00 +26°C° 0 mm 6 mps 731 mmHg 72%
    20:00 +24°C° 0 mm 6 mps 731 mmHg 77%
    21:00 +23°C° 0 mm 5 mps 731 mmHg 81%
    22:00 +22°C° 0 mm 5 mps 731 mmHg 84%
    23:00 +22°C° 0 mm 5 mps 731 mmHg 87%
    Show more